Tracking 19576 objects as of 16-Feb-2019
HD Live streaming from Space Station
objects crossing your sky now

FLOCK 3P 14

Track FLOCK 3P 14 now!
10-day predictions
FLOCK 3P 14 is classified as:


NORAD ID: 42012
Int'l Code: 2017-008BS
Perigee: 493.1 km
Apogee: 501.4 km
Inclination: 97.4 °
Period: 94.4 minutes
Semi major axis: 6868 km
RCS: Unknown
Launch date: February 15, 2017
Source: United States (US)
Launch site: SRIHARIKOTA (SRI)
aabbcc
Your satellite tracking list
Your tracking list is empty




NASA's NSSDC Master Catalog

Two Line Element Set (TLE):
1 42012U 17008BS  19046.85928226 +.00000958 +00000-0 +40990-4 0  9995
2 42012 097.4229 115.2867 0006083 230.6145 129.4555 15.25227262111044
Source of the keplerian elements: AFSPC